Perpignan - Rivesaltes Airport

Airport
ICAO code: 
LFMP
IATA Code: 
PGF
Summary
ICAO Region: 
EUR
Territory: 
Location: 
Perpignan, Languedoc-Roussillon
Serving: 
Perpignan
Elevation: 
144 ft
Coordinates: 
Aerial View: 
42° 44' 40.996" N, 2° 52' 10.994" E
Metar
Observation
LFMP 291500Z AUTO 34010KT 310V020 9999 SCT025 BKN030 BKN035 05/00 Q1016 BECMG 32015G25KT
Station
Perpignan
Date/Time
2021-11-29 15:00:00
Wind direction
340°
Wind speed
10 kts
Lowest cloud amount
scattered clouds
Temperature
5°C
Dew point
0°C
Humidity
70%
QNH
1016 hPa
Weather condition
n/a

Description

International airport serving Perginan.

Climatology

Dry-summer subtropical ”Mediterranean" climate (Köppen climate classification Csa) - characterized by hot, dry summers and mild winters. During the summer, subtropical high pressure cells dominate, making rainfall unlikely except for the occasional thunderstorm. In the winter, periodic storms bring rain (snow at higher elevations).

Runways

Designator Length Width Surface Rops
13/31 1265 20 ASP Yes/Yes
15/33 2500 45 ASP Yes/Yes
Airport map: 
Aerial View: 

Accidents and Serious Incidents at or in the vicinity of LFMP

SKYbrary Partners:

Safety knowledge contributed by: